| time (UTC) | temp C | wind direction | speed KPH | gust KPH | rain 1hr cm | rain 24hr cm | rain mn cm | humidity % | barometer mb |
| 20260508004504 | 8 | 123 | 0.0 | 0.0 | 0.00 | 0.00 | 0.00 | 82 | 1017.4 |
| 20260508004012 | 8 | 123 | 0.0 | 0.0 | 0.00 | 0.00 | 0.00 | 82 | 1017.4 |
| 20260508003505 | 8 | 123 | 0.0 | 0.0 | 0.00 | 0.00 | 0.00 | 82 | 1017.4 |
| 20260508003012 | 9 | 123 | 0.0 | 1.6 | 0.00 | 0.00 | 0.00 | 81 | 1017.4 |
| 20260508002505 | 9 | 123 | 1.6 | 3.2 | 0.00 | 0.00 | 0.00 | 81 | 1017.5 |
| 20260508002012 | 9 | 123 | 0.0 | 3.2 | 0.00 | 0.00 | 0.00 | 81 | 1017.5 |
| 20260508001505 | 10 | 123 | 1.6 | 3.2 | 0.00 | 0.00 | 0.00 | 81 | 1017.5 |
| 20260508001012 | 10 | 123 | 1.6 | 22.5 | 0.00 | 0.00 | 0.00 | 81 | 1017.5 |
| 20260508000505 | 10 | 123 | 0.0 | 3.2 | 0.00 | 0.00 | 0.00 | 80 | 1017.5 |
| 20260508000005 | 10 | 123 | 0.0 | 1.6 | 0.00 | 0.00 | 0.00 | 80 | 1017.5 |
| 20260507235505 | 10 | 123 | 0.0 | 1.6 | 0.00 | 0.00 | 0.00 | 79 | 1017.5 |
| 20260507235011 | 10 | 123 | 0.0 | 3.2 | 0.00 | 0.00 | 0.00 | 79 | 1017.5 |
| 20260507234504 | 10 | 123 | 1.6 | 4.8 | 0.00 | 0.00 | 0.00 | 79 | 1017.6 |
| 20260507233011 | 11 | 102 | 1.6 | 4.8 | 0.00 | 0.00 | 0.00 | 78 | 1017.7 |
| 20260507232505 | 11 | 120 | 1.6 | 4.8 | 0.00 | 0.00 | 0.00 | 78 | 1017.7 |
| 20260507232012 | 11 | 116 | 3.2 | 4.8 | 0.00 | 0.00 | 0.00 | 78 | 1017.7 |
| 20260507231505 | 11 | 125 | 3.2 | 8.0 | 0.00 | 0.00 | 0.00 | 77 | 1017.8 |
| 20260507231012 | 11 | 143 | 4.8 | 8.0 | 0.00 | 0.00 | 0.00 | 77 | 1017.8 |
| 20260507230505 | 11 | 121 | 3.2 | 4.8 | 0.00 | 0.00 | 0.00 | 77 | 1017.9 |
| 20260507230005 | 11 | 132 | 3.2 | 8.0 | 0.00 | 0.00 | 0.00 | 77 | 1017.9 |
| 20260507225012 | 11 | 138 | 1.6 | 8.0 | 0.00 | 0.00 | 0.00 | 76 | 1018.0 |
| 20260507224505 | 11 | 162 | 1.6 | 4.8 | 0.00 | 0.00 | 0.00 | 75 | 1018.0 |
| 20260507223012 | 11 | 165 | 1.6 | 4.8 | 0.00 | 0.00 | 0.00 | 73 | 1018.0 |
| 20260507222504 | 11 | 142 | 1.6 | 9.7 | 0.00 | 0.00 | 0.00 | 73 | 1018.0 |
| 20260507222012 | 11 | 173 | 4.8 | 8.0 | 0.00 | 0.00 | 0.00 | 73 | 1018.0 |
| 20260507221505 | 11 | 164 | 8.0 | 9.7 | 0.00 | 0.00 | 0.00 | 73 | 1018.0 |
| 20260507221012 | 12 | 156 | 4.8 | 9.7 | 0.00 | 0.00 | 0.00 | 73 | 1018.0 |
| 20260507220506 | 12 | 161 | 6.4 | 11.3 | 0.00 | 0.00 | 0.00 | 73 | 1018.0 |
| 20260507215012 | 12 | 153 | 3.2 | 4.8 | 0.00 | 0.00 | 0.00 | 72 | 1018.2 |
| 20260507214505 | 12 | 186 | 6.4 | 9.7 | 0.00 | 0.00 | 0.00 | 72 | 1018.2 |
| 20260507214011 | 12 | 160 | 4.8 | 8.0 | 0.00 | 0.00 | 0.00 | 72 | 1018.1 |
| 20260507213505 | 12 | 164 | 3.2 | 11.3 | 0.00 | 0.00 | 0.00 | 71 | 1018.2 |
| 20260507213012 | 12 | 113 | 3.2 | 9.7 | 0.00 | 0.00 | 0.00 | 71 | 1018.1 |
| 20260507212012 | 12 | 155 | 4.8 | 8.0 | 0.00 | 0.00 | 0.00 | 71 | 1018.2 |
| 20260507211504 | 12 | 148 | 4.8 | 11.3 | 0.00 | 0.00 | 0.00 | 71 | 1018.0 |
| 20260507211012 | 12 | 159 | 3.2 | 8.0 | 0.00 | 0.00 | 0.00 | 70 | 1018.1 |
| 20260507210505 | 12 | 143 | 1.6 | 4.8 | 0.00 | 0.00 | 0.00 | 70 | 1018.0 |
| 20260507210005 | 12 | 160 | 4.8 | 8.0 | 0.00 | 0.00 | 0.00 | 70 | 1017.9 |
| 20260507205012 | 12 | 163 | 4.8 | 9.7 | 0.00 | 0.00 | 0.00 | 69 | 1017.9 |
| 20260507204011 | 12 | 174 | 8.0 | 14.5 | 0.00 | 0.00 | 0.00 | 68 | 1017.8 |
| 20260507203505 | 12 | 177 | 4.8 | 14.5 | 0.00 | 0.00 | 0.00 | 68 | 1017.6 |
| 20260507203012 | 12 | 180 | 8.0 | 14.5 | 0.00 | 0.00 | 0.00 | 69 | 1017.6 |
| 20260507202504 | 12 | 163 | 4.8 | 11.3 | 0.00 | 0.00 | 0.00 | 69 | 1017.6 |
| 20260507202011 | 12 | 177 | 6.4 | 14.5 | 0.00 | 0.00 | 0.00 | 69 | 1017.5 |
| 20260507201505 | 12 | 166 | 4.8 | 12.9 | 0.00 | 0.00 | 0.00 | 69 | 1017.5 |
| 20260507200005 | 12 | 177 | 4.8 | 12.9 | 0.00 | 0.00 | 0.00 | 69 | 1017.4 |
| 20260507195504 | 12 | 165 | 4.8 | 16.1 | 0.00 | 0.00 | 0.00 | 69 | 1017.3 |
| 20260507194504 | 12 | 165 | 3.2 | 16.1 | 0.00 | 0.00 | 0.00 | 69 | 1017.2 |
| 20260507194011 | 12 | 181 | 6.4 | 16.1 | 0.00 | 0.00 | 0.00 | 69 | 1017.2 |
| 20260507193505 | 12 | 164 | 9.7 | 16.1 | 0.00 | 0.00 | 0.00 | 69 | 1017.1 |
| 20260507193012 | 12 | 185 | 4.8 | 14.5 | 0.00 | 0.00 | 0.00 | 68 | 1017.0 |
| 20260507192504 | 12 | 160 | 11.3 | 19.3 | 0.00 | 0.00 | 0.00 | 68 | 1017.0 |
| 20260507192012 | 12 | 164 | 9.7 | 16.1 | 0.00 | 0.00 | 0.00 | 68 | 1016.9 |
| 20260507191504 | 12 | 184 | 6.4 | 14.5 | 0.00 | 0.00 | 0.00 | 68 | 1016.9 |
| 20260507191011 | 12 | 159 | 4.8 | 14.5 | 0.00 | 0.00 | 0.00 | 67 | 1017.0 |
| 20260507190505 | 12 | 146 | 9.7 | 16.1 | 0.00 | 0.00 | 0.00 | 67 | 1017.0 |
| 20260507190005 | 12 | 145 | 9.7 | 19.3 | 0.00 | 0.00 | 0.00 | 67 | 1017.0 |
| 20260507185504 | 12 | 164 | 11.3 | 16.1 | 0.00 | 0.00 | 0.00 | 66 | 1017.0 |
| 20260507185011 | 12 | 160 | 8.0 | 19.3 | 0.00 | 0.00 | 0.00 | 67 | 1017.0 |
| 20260507184505 | 12 | 180 | 14.5 | 19.3 | 0.00 | 0.00 | 0.00 | 66 | 1017.0 |
| 20260507184011 | 12 | 150 | 4.8 | 19.3 | 0.00 | 0.00 | 0.00 | 66 | 1017.0 |
| 20260507183012 | 13 | 145 | 11.3 | 19.3 | 0.00 | 0.00 | 0.00 | 65 | 1017.0 |
| 20260507182012 | 13 | 178 | 8.0 | 19.3 | 0.00 | 0.00 | 0.00 | 64 | 1017.0 |
| 20260507181012 | 13 | 147 | 9.7 | 20.9 | 0.00 | 0.00 | 0.00 | 65 | 1016.9 |
| 20260507180505 | 13 | 123 | 4.8 | 19.3 | 0.00 | 0.00 | 0.00 | 65 | 1016.8 |
| 20260507180004 | 13 | 163 | 8.0 | 16.1 | 0.00 | 0.00 | 0.00 | 65 | 1016.9 |
| 20260507175505 | 13 | 158 | 11.3 | 19.3 | 0.00 | 0.00 | 0.00 | 64 | 1016.9 |
| 20260507175011 | 13 | 161 | 6.4 | 19.3 | 0.00 | 0.00 | 0.00 | 64 | 1016.8 |
| 20260507174504 | 13 | 161 | 9.7 | 16.1 | 0.00 | 0.00 | 0.00 | 63 | 1016.8 |
| 20260507174011 | 13 | 131 | 9.7 | 19.3 | 0.00 | 0.00 | 0.00 | 63 | 1016.8 |
| 20260507173504 | 13 | 160 | 6.4 | 16.1 | 0.00 | 0.00 | 0.00 | 63 | 1016.8 |
| 20260507173011 | 13 | 164 | 9.7 | 19.3 | 0.00 | 0.00 | 0.00 | 63 | 1016.7 |
| 20260507172504 | 13 | 151 | 8.0 | 19.3 | 0.00 | 0.00 | 0.00 | 63 | 1016.7 |
| 20260507172011 | 13 | 168 | 11.3 | 19.3 | 0.00 | 0.00 | 0.00 | 63 | 1016.7 |
| 20260507171504 | 13 | 169 | 8.0 | 16.1 | 0.00 | 0.00 | 0.00 | 62 | 1016.7 |
| 20260507171011 | 13 | 160 | 9.7 | 19.3 | 0.00 | 0.00 | 0.00 | 62 | 1016.7 |
| 20260507170505 | 13 | 135 | 8.0 | 22.5 | 0.00 | 0.00 | 0.00 | 63 | 1016.6 |
| 20260507170004 | 13 | 154 | 9.7 | 20.9 | 0.00 | 0.00 | 0.00 | 64 | 1016.6 |
| 20260507165504 | 13 | 116 | 9.7 | 19.3 | 0.00 | 0.00 | 0.00 | 63 | 1016.6 |
| 20260507165011 | 13 | 118 | 9.7 | 19.3 | 0.00 | 0.00 | 0.00 | 63 | 1016.6 |
| 20260507164504 | 14 | 112 | 11.3 | 20.9 | 0.00 | 0.00 | 0.00 | 62 | 1016.6 |
| 20260507164011 | 14 | 128 | 9.7 | 20.9 | 0.00 | 0.00 | 0.00 | 62 | 1016.6 |
| 20260507163504 | 14 | 122 | 11.3 | 22.5 | 0.00 | 0.00 | 0.00 | 62 | 1016.7 |
| 20260507163012 | 14 | 153 | 8.0 | 19.3 | 0.00 | 0.00 | 0.00 | 61 | 1016.7 |
| 20260507161504 | 13 | 117 | 14.5 | 19.3 | 0.00 | 0.00 | 0.00 | 62 | 1016.8 |
| 20260507161011 | 13 | 123 | 8.0 | 14.5 | 0.00 | 0.00 | 0.00 | 60 | 1016.7 |
| 20260507160505 | 14 | 130 | 6.4 | 14.5 | 0.00 | 0.00 | 0.00 | 58 | 1016.7 |
| 20260507160004 | 14 | 143 | 8.0 | 16.1 | 0.00 | 0.00 | 0.00 | 57 | 1016.7 |
| 20260507155504 | 14 | 168 | 11.3 | 19.3 | 0.00 | 0.00 | 0.00 | 58 | 1016.8 |
| 20260507155011 | 13 | 148 | 4.8 | 14.5 | 0.00 | 0.00 | 0.00 | 59 | 1016.7 |
| 20260507154504 | 13 | 113 | 9.7 | 19.3 | 0.00 | 0.00 | 0.00 | 59 | 1016.7 |
| 20260507154011 | 14 | 124 | 9.7 | 19.3 | 0.00 | 0.00 | 0.00 | 59 | 1016.7 |
| 20260507153505 | 14 | 116 | 4.8 | 14.5 | 0.00 | 0.00 | 0.00 | 59 | 1016.8 |
| 20260507153011 | 14 | 113 | 6.4 | 16.1 | 0.00 | 0.00 | 0.00 | 59 | 1016.8 |
| 20260507152504 | 14 | 144 | 4.8 | 14.5 | 0.00 | 0.00 | 0.00 | 58 | 1016.8 |
| 20260507152011 | 15 | 134 | 8.0 | 19.3 | 0.00 | 0.00 | 0.00 | 56 | 1016.8 |
| 20260507151504 | 15 | 127 | 8.0 | 12.9 | 0.00 | 0.00 | 0.00 | 53 | 1016.8 |
| 20260507151011 | 15 | 134 | 4.8 | 11.3 | 0.00 | 0.00 | 0.00 | 53 | 1016.8 |
| 20260507150504 | 15 | 160 | 3.2 | 11.3 | 0.00 | 0.00 | 0.00 | 54 | 1016.8 |
| 20260507150005 | 15 | 126 | 3.2 | 8.0 | 0.00 | 0.00 | 0.00 | 54 | 1016.8 |
| 20260507145504 | 15 | 142 | 8.0 | 14.5 | 0.00 | 0.00 | 0.00 | 52 | 1016.9 |
| 20260507144504 | 15 | 165 | 8.0 | 16.1 | 0.00 | 0.00 | 0.00 | 53 | 1016.9 |
| 20260507144011 | 15 | 178 | 8.0 | 11.3 | 0.00 | 0.00 | 0.00 | 53 | 1016.9 |
| 20260507143504 | 15 | 101 | 4.8 | 16.1 | 0.00 | 0.00 | 0.00 | 53 | 1016.9 |
| 20260507143011 | 16 | 140 | 6.4 | 14.5 | 0.00 | 0.00 | 0.00 | 52 | 1016.9 |
| 20260507142504 | 16 | 246 | 4.8 | 11.3 | 0.00 | 0.00 | 0.00 | 53 | 1016.9 |
| 20260507142011 | 15 | 80 | 8.0 | 12.9 | 0.00 | 0.00 | 0.00 | 52 | 1017.0 |
| 20260507141012 | 16 | 144 | 9.7 | 19.3 | 0.00 | 0.00 | 0.00 | 51 | 1017.1 |
| 20260507140504 | 16 | 165 | 8.0 | 16.1 | 0.00 | 0.00 | 0.00 | 54 | 1017.0 |
| 20260507140007 | 16 | 112 | 6.4 | 14.5 | 0.00 | 0.00 | 0.00 | 55 | 1017.0 |
| 20260507135504 | 15 | 154 | 3.2 | 12.9 | 0.00 | 0.00 | 0.00 | 55 | 1017.1 |
| 20260507135011 | 15 | 104 | 4.8 | 14.5 | 0.00 | 0.00 | 0.00 | 54 | 1017.1 |
| 20260507134505 | 15 | 220 | 6.4 | 14.5 | 0.00 | 0.00 | 0.00 | 56 | 1017.1 |
| 20260507133506 | 15 | 161 | 8.0 | 19.3 | 0.00 | 0.00 | 0.00 | 56 | 1017.1 |
| 20260507133013 | 15 | 161 | 8.0 | 19.3 | 0.00 | 0.00 | 0.00 | 56 | 1017.1 |
| 20260507132506 | 15 | 164 | 4.8 | 14.5 | 0.00 | 0.00 | 0.00 | 56 | 1017.1 |
| 20260507131506 | 14 | 127 | 6.4 | 12.9 | 0.00 | 0.00 | 0.00 | 58 | 1017.2 |
| 20260507131013 | 14 | 148 | 8.0 | 19.3 | 0.00 | 0.00 | 0.00 | 58 | 1017.2 |
| 20260507130507 | 14 | 175 | 3.2 | 11.3 | 0.00 | 0.00 | 0.00 | 58 | 1017.2 |
| 20260507130005 | 14 | 166 | 8.0 | 14.5 | 0.00 | 0.00 | 0.00 | 57 | 1017.1 |
| 20260507125506 | 14 | 166 | 4.8 | 9.7 | 0.00 | 0.00 | 0.00 | 58 | 1017.2 |
| 20260507124013 | 14 | 164 | 6.4 | 12.9 | 0.00 | 0.00 | 0.00 | 58 | 1017.2 |
| 20260507123509 | 14 | 201 | 4.8 | 11.3 | 0.00 | 0.00 | 0.00 | 56 | 1017.3 |
| 20260507123013 | 14 | 232 | 4.8 | 11.3 | 0.00 | 0.00 | 0.00 | 58 | 1017.3 |
| 20260507122506 | 14 | 205 | 4.8 | 12.9 | 0.00 | 0.00 | 0.00 | 58 | 1017.3 |
| 20260507122013 | 14 | 172 | 3.2 | 11.3 | 0.00 | 0.00 | 0.00 | 56 | 1017.4 |
| 20260507121506 | 14 | 215 | 4.8 | 14.5 | 0.00 | 0.00 | 0.00 | 56 | 1017.3 |
| 20260507121013 | 14 | 164 | 4.8 | 14.5 | 0.00 | 0.00 | 0.00 | 57 | 1017.3 |
| 20260507120506 | 14 | 202 | 3.2 | 8.0 | 0.00 | 0.00 | 0.00 | 56 | 1017.3 |
| 20260507120006 | 14 | 228 | 3.2 | 11.3 | 0.00 | 0.00 | 0.00 | 55 | 1017.3 |
| 20260507115506 | 14 | 85 | 3.2 | 11.3 | 0.00 | 0.00 | 0.00 | 54 | 1017.3 |
| 20260507115013 | 14 | 166 | 3.2 | 12.9 | 0.00 | 0.00 | 0.00 | 54 | 1017.4 |
| 20260507114505 | 14 | 229 | 8.0 | 16.1 | 0.00 | 0.00 | 0.00 | 55 | 1017.4 |
| 20260507114013 | 14 | 178 | 11.3 | 19.3 | 0.00 | 0.00 | 0.00 | 55 | 1017.4 |
| 20260507113505 | 14 | 175 | 4.8 | 12.9 | 0.00 | 0.00 | 0.00 | 57 | 1017.4 |
| 20260507113013 | 14 | 137 | 3.2 | 12.9 | 0.00 | 0.00 | 0.00 | 56 | 1017.4 |
| 20260507112505 | 15 | 144 | 11.3 | 16.1 | 0.00 | 0.00 | 0.00 | 58 | 1017.4 |
| 20260507112013 | 14 | 187 | 4.8 | 12.9 | 0.00 | 0.00 | 0.00 | 60 | 1017.5 |
| 20260507111013 | 14 | 135 | 9.7 | 16.1 | 0.00 | 0.00 | 0.00 | 61 | 1017.5 |
| 20260507110506 | 13 | 172 | 6.4 | 14.5 | 0.00 | 0.00 | 0.00 | 61 | 1017.5 |
| 20260507110006 | 13 | 137 | 4.8 | 11.3 | 0.00 | 0.00 | 0.00 | 63 | 1017.5 |
| 20260507105506 | 12 | 138 | 6.4 | 14.5 | 0.00 | 0.00 | 0.00 | 63 | 1017.5 |
| 20260507105016 | 12 | 134 | 8.0 | 12.9 | 0.00 | 0.00 | 0.00 | 63 | 1017.6 |
| 20260507104505 | 12 | 132 | 4.8 | 12.9 | 0.00 | 0.00 | 0.00 | 63 | 1017.6 |
| 20260507104014 | 12 | 208 | 3.2 | 12.9 | 0.00 | 0.00 | 0.00 | 62 | 1017.6 |
| 20260507103506 | 12 | 147 | 3.2 | 12.9 | 0.00 | 0.00 | 0.00 | 62 | 1017.6 |
| 20260507103012 | 12 | 161 | 11.3 | 16.1 | 0.00 | 0.00 | 0.00 | 63 | 1017.6 |
| 20260507102506 | 12 | 147 | 4.8 | 11.3 | 0.00 | 0.00 | 0.00 | 62 | 1017.6 |
| 20260507102012 | 12 | 152 | 4.8 | 11.3 | 0.00 | 0.00 | 0.00 | 63 | 1017.6 |
| 20260507101013 | 12 | 166 | 4.8 | 9.7 | 0.00 | 0.00 | 0.00 | 63 | 1017.7 |
| 20260507095506 | 12 | 210 | 3.2 | 8.0 | 0.00 | 0.00 | 0.00 | 64 | 1017.6 |
| 20260507095012 | 12 | 229 | 3.2 | 8.0 | 0.00 | 0.00 | 0.00 | 65 | 1017.6 |
| 20260507094505 | 12 | 176 | 3.2 | 4.8 | 0.00 | 0.00 | 0.00 | 65 | 1017.5 |
| 20260507094013 | 12 | 187 | 3.2 | 4.8 | 0.00 | 0.00 | 0.00 | 65 | 1017.6 |
| 20260507093506 | 12 | 133 | 3.2 | 11.3 | 0.00 | 0.00 | 0.00 | 65 | 1017.6 |
| 20260507093013 | 12 | 223 | 0.0 | 3.2 | 0.00 | 0.00 | 0.00 | 66 | 1017.5 |
| 20260507092505 | 12 | 223 | 1.6 | 4.8 | 0.00 | 0.00 | 0.00 | 66 | 1017.6 |
| 20260507092012 | 12 | 165 | 4.8 | 11.3 | 0.00 | 0.00 | 0.00 | 66 | 1017.5 |
| 20260507091013 | 12 | 154 | 3.2 | 4.8 | 0.00 | 0.00 | 0.00 | 68 | 1017.5 |
| 20260507090506 | 12 | 195 | 1.6 | 9.7 | 0.00 | 0.00 | 0.00 | 69 | 1017.5 |
| 20260507090006 | 12 | 155 | 1.6 | 4.8 | 0.00 | 0.00 | 0.00 | 69 | 1017.5 |
| 20260507085013 | 12 | 134 | 6.4 | 11.3 | 0.00 | 0.00 | 0.00 | 69 | 1017.5 |
| 20260507084505 | 12 | 152 | 4.8 | 11.3 | 0.00 | 0.00 | 0.00 | 70 | 1017.5 |
| 20260507084013 | 11 | 152 | 6.4 | 11.3 | 0.00 | 0.00 | 0.00 | 71 | 1017.5 |
| 20260507083506 | 11 | 147 | 6.4 | 14.5 | 0.00 | 0.00 | 0.00 | 72 | 1017.5 |
| 20260507083012 | 11 | 146 | 3.2 | 14.5 | 0.00 | 0.00 | 0.00 | 71 | 1017.5 |
| 20260507082505 | 11 | 126 | 3.2 | 11.3 | 0.00 | 0.00 | 0.00 | 72 | 1017.6 |
| 20260507082013 | 11 | 172 | 4.8 | 14.5 | 0.00 | 0.00 | 0.00 | 72 | 1017.5 |
| 20260507081506 | 11 | 108 | 6.4 | 12.9 | 0.00 | 0.00 | 0.00 | 73 | 1017.5 |
| 20260507081012 | 11 | 182 | 1.6 | 9.7 | 0.00 | 0.00 | 0.00 | 73 | 1017.5 |
| 20260507080506 | 11 | 136 | 6.4 | 12.9 | 0.00 | 0.00 | 0.00 | 73 | 1017.4 |
| 20260507080005 | 11 | 114 | 1.6 | 9.7 | 0.00 | 0.00 | 0.00 | 73 | 1017.4 |
| 20260507075505 | 11 | 158 | 4.8 | 11.3 | 0.00 | 0.00 | 0.00 | 73 | 1017.5 |
| 20260507075012 | 11 | 151 | 8.0 | 12.9 | 0.00 | 0.00 | 0.00 | 74 | 1017.4 |
| 20260507074505 | 11 | 99 | 4.8 | 11.3 | 0.00 | 0.00 | 0.00 | 74 | 1017.3 |
| 20260507072505 | 10 | 148 | 4.8 | 11.3 | 0.00 | 0.00 | 0.00 | 77 | 1017.4 |
| 20260507072012 | 10 | 106 | 4.8 | 9.7 | 0.00 | 0.00 | 0.00 | 77 | 1017.4 |
| 20260507071012 | 10 | 110 | 4.8 | 9.7 | 0.00 | 0.00 | 0.00 | 77 | 1017.3 |
| 20260507070506 | 10 | 150 | 4.8 | 11.3 | 0.00 | 0.00 | 0.00 | 77 | 1017.3 |
| 20260507070010 | 10 | 140 | 3.2 | 9.7 | 0.00 | 0.00 | 0.00 | 78 | 1017.3 |
| 20260507064505 | 10 | 99 | 3.2 | 4.8 | 0.00 | 0.00 | 0.00 | 78 | 1017.3 |
| 20260507064013 | 10 | 136 | 3.2 | 4.8 | 0.00 | 0.00 | 0.00 | 79 | 1017.3 |
| 20260507063505 | 10 | 123 | 4.8 | 4.8 | 0.00 | 0.00 | 0.00 | 80 | 1017.2 |
| 20260507062505 | 9 | 107 | 3.2 | 9.7 | 0.00 | 0.00 | 0.00 | 82 | 1017.1 |
| 20260507062013 | 9 | 94 | 3.2 | 9.7 | 0.00 | 0.00 | 0.00 | 82 | 1017.1 |
| 20260507061505 | 8 | 110 | 4.8 | 9.7 | 0.00 | 0.00 | 0.00 | 82 | 1017.1 |
| 20260507061012 | 8 | 96 | 4.8 | 4.8 | 0.00 | 0.00 | 0.00 | 83 | 1017.0 |
| 20260507060506 | 8 | 92 | 3.2 | 4.8 | 0.00 | 0.00 | 0.00 | 83 | 1017.0 |
| 20260507060006 | 8 | 100 | 4.8 | 11.3 | 0.00 | 0.00 | 0.00 | 83 | 1017.0 |
| 20260507055505 | 8 | 94 | 3.2 | 9.7 | 0.00 | 0.00 | 0.00 | 84 | 1017.0 |
| 20260507054505 | 8 | 89 | 3.2 | 4.8 | 0.00 | 0.00 | 0.00 | 84 | 1017.0 |
| 20260507054013 | 8 | 107 | 0.0 | 4.8 | 0.00 | 0.00 | 0.00 | 84 | 1016.9 |
| 20260507053506 | 8 | 94 | 1.6 | 4.8 | 0.00 | 0.00 | 0.00 | 84 | 1016.9 |
| 20260507053012 | 8 | 101 | 1.6 | 4.8 | 0.00 | 0.00 | 0.00 | 84 | 1016.9 |
| 20260507051505 | 8 | 105 | 1.6 | 4.8 | 0.00 | 0.00 | 0.00 | 84 | 1016.8 |
| 20260507051012 | 8 | 85 | 3.2 | 4.8 | 0.00 | 0.00 | 0.00 | 84 | 1016.7 |
| 20260507050506 | 8 | 114 | 3.2 | 4.8 | 0.00 | 0.00 | 0.00 | 84 | 1016.7 |
| 20260507050006 | 8 | 102 | 3.2 | 4.8 | 0.00 | 0.00 | 0.00 | 84 | 1016.7 |
| 20260507045505 | 7 | 96 | 4.8 | 9.7 | 0.00 | 0.00 | 0.00 | 85 | 1016.7 |
| 20260507045012 | 7 | 101 | 3.2 | 9.7 | 0.00 | 0.00 | 0.00 | 85 | 1016.6 |
| 20260507044506 | 7 | 110 | 3.2 | 4.8 | 0.00 | 0.00 | 0.00 | 85 | 1016.6 |
| 20260507044012 | 7 | 138 | 3.2 | 4.8 | 0.00 | 0.00 | 0.00 | 86 | 1016.6 |
| 20260507043505 | 7 | 94 | 3.2 | 9.7 | 0.00 | 0.00 | 0.00 | 86 | 1016.6 |
| 20260507043012 | 7 | 130 | 1.6 | 4.8 | 0.00 | 0.00 | 0.00 | 87 | 1016.6 |
| 20260507042505 | 7 | 108 | 3.2 | 9.7 | 0.00 | 0.00 | 0.00 | 87 | 1016.6 |
| 20260507042012 | 7 | 96 | 3.2 | 4.8 | 0.00 | 0.00 | 0.00 | 87 | 1016.6 |
| 20260507041505 | 7 | 94 | 0.0 | 4.8 | 0.00 | 0.00 | 0.00 | 87 | 1016.7 |
| 20260507041013 | 7 | 101 | 0.0 | 3.2 | 0.00 | 0.00 | 0.00 | 87 | 1016.6 |
| 20260507040505 | 7 | 101 | 1.6 | 1.6 | 0.00 | 0.00 | 0.00 | 87 | 1016.7 |
| 20260507040005 | 7 | 101 | 0.0 | 1.6 | 0.00 | 0.00 | 0.00 | 87 | 1016.7 |
| 20260507035505 | 7 | 101 | 0.0 | 3.2 | 0.00 | 0.00 | 0.00 | 87 | 1016.6 |
| 20260507035012 | 7 | 101 | 1.6 | 4.8 | 0.00 | 0.00 | 0.00 | 87 | 1016.6 |
| 20260507034505 | 7 | 101 | 0.0 | 4.8 | 0.00 | 0.00 | 0.00 | 86 | 1016.6 |
| 20260507034012 | 7 | 93 | 1.6 | 3.2 | 0.00 | 0.00 | 0.00 | 86 | 1016.5 |
| 20260507033505 | 7 | 103 | 1.6 | 4.8 | 0.00 | 0.00 | 0.00 | 86 | 1016.5 |
| 20260507033012 | 7 | 55 | 0.0 | 1.6 | 0.00 | 0.00 | 0.00 | 86 | 1016.5 |
| 20260507032505 | 7 | 55 | 0.0 | 1.6 | 0.00 | 0.00 | 0.00 | 86 | 1016.5 |
| 20260507032012 | 7 | 55 | 0.0 | 3.2 | 0.00 | 0.00 | 0.00 | 86 | 1016.5 |
| 20260507031505 | 7 | 55 | 0.0 | 1.6 | 0.00 | 0.00 | 0.00 | 86 | 1016.5 |
| 20260507031012 | 7 | 55 | 0.0 | 1.6 | 0.00 | 0.00 | 0.00 | 86 | 1016.5 |
| 20260507030505 | 7 | 55 | 0.0 | 4.8 | 0.00 | 0.00 | 0.00 | 85 | 1016.5 |
| 20260507030005 | 7 | 55 | 1.6 | 3.2 | 0.00 | 0.00 | 0.00 | 85 | 1016.6 |
| 20260507025012 | 8 | 55 | 0.0 | 0.0 | 0.00 | 0.00 | 0.00 | 85 | 1016.6 |
| 20260507024012 | 8 | 55 | 0.0 | 1.6 | 0.00 | 0.00 | 0.00 | 85 | 1016.5 |
| 20260507023505 | 8 | 55 | 1.6 | 3.2 | 0.00 | 0.00 | 0.00 | 85 | 1016.5 |
| 20260507023013 | 8 | 55 | 0.0 | 1.6 | 0.00 | 0.00 | 0.00 | 85 | 1016.5 |
| 20260507022505 | 8 | 55 | 1.6 | 3.2 | 0.00 | 0.00 | 0.00 | 85 | 1016.5 |
| 20260507022013 | 8 | 55 | 0.0 | 3.2 | 0.00 | 0.00 | 0.00 | 85 | 1016.5 |
| 20260507021505 | 8 | 55 | 1.6 | 4.8 | 0.00 | 0.00 | 0.00 | 85 | 1016.5 |
| 20260507021012 | 8 | 55 | 0.0 | 3.2 | 0.00 | 0.00 | 0.00 | 85 | 1016.5 |
| 20260507020505 | 8 | 55 | 0.0 | 1.6 | 0.00 | 0.00 | 0.00 | 85 | 1016.4 |
| 20260507020005 | 8 | 55 | 0.0 | 1.6 | 0.00 | 0.00 | 0.00 | 85 | 1016.3 |
| 20260507015505 | 8 | 55 | 0.0 | 3.2 | 0.00 | 0.00 | 0.00 | 85 | 1016.3 |
| 20260507015012 | 8 | 51 | 0.0 | 3.2 | 0.00 | 0.00 | 0.00 | 86 | 1016.3 |
| 20260507014505 | 8 | 78 | 0.0 | 4.8 | 0.00 | 0.00 | 0.00 | 85 | 1016.4 |
| 20260507014012 | 8 | 60 | 1.6 | 4.8 | 0.00 | 0.00 | 0.00 | 85 | 1016.4 |
| 20260507013505 | 8 | 74 | 3.2 | 4.8 | 0.00 | 0.00 | 0.00 | 85 | 1016.4 |
| 20260507013012 | 8 | 36 | 3.2 | 4.8 | 0.00 | 0.00 | 0.00 | 85 | 1016.3 |
| 20260507012505 | 8 | 26 | 3.2 | 4.8 | 0.00 | 0.00 | 0.00 | 85 | 1016.3 |
| 20260507012012 | 8 | 23 | 3.2 | 8.0 | 0.00 | 0.00 | 0.00 | 85 | 1016.4 |
| 20260507011505 | 8 | 13 | 1.6 | 4.8 | 0.00 | 0.00 | 0.00 | 85 | 1016.3 |
| 20260507011012 | 8 | 17 | 0.0 | 4.8 | 0.00 | 0.00 | 0.00 | 85 | 1016.3 |
| 20260507010505 | 8 | 40 | 0.0 | 3.2 | 0.00 | 0.00 | 0.00 | 85 | 1016.3 |
| 20260507010005 | 8 | 40 | 0.0 | 3.2 | 0.00 | 0.00 | 0.00 | 85 | 1016.3 |
| 20260507005505 | 8 | 40 | 1.6 | 1.6 | 0.00 | 0.00 | 0.00 | 85 | 1016.3 |
| 20260507005012 | 8 | 40 | 1.6 | 4.8 | 0.00 | 0.00 | 0.00 | 85 | 1016.3 |